Weather Roundup
Issued by NWS

Home | Current Version | Previous Version | Graphics & Text | Print | Product List | Glossary Off
Versions: 1 2 3 4 5 6 7 8 9 10 11 12 13 14 15 16 17 18 19 20 21 22 23 24 25 26 27 28 29 30 31 32 33 34 35 36 37 38 39 40 41 42 43 44 45 46 47 48 49 50

000
NZUS93 KARX 252259
HRRWXR

CURRENT HOURLY OBSERVATIONS ACROSS
MUCH OF THE UPPER MISSISSIPPI VALLEY
NATIONAL WEATHER SERVICE LA CROSSE WI
500 PM CST THU DEC 25 2014


...SOUTHEAST MINNESOTA...


CITY           SKY/WX    TMP DP  RH WIND       PRES   REMARKS
ROCHESTER      MOCLDY    32  28  85 E7        29.77S WCI  26
ROCHESTER/MAYO FAIR      35  29  80 E5        29.78S WCI  31
WINONA         PTCLDY    36  30  80 CALM      29.82R
AUSTIN         CLOUDY    34  30  86 CALM      29.76R
ALBERT LEA     CLOUDY    34  32  93 E3        29.75R
DODGE CENTER   CLOUDY    32  30  93 SE6       29.76S WCI  26
PRESTON        PTCLDY    33  30  87 SE3       29.78R
OWATONNA       CLOUDY    34  28  80 CALM      29.77R
FARIBAULT      CLOUDY    36  30  80 E3        29.78R
$$

...ELSEWHERE IN MINNESOTA...


CITY           SKY/WX    TMP DP  RH WIND       PRES   REMARKS
MINNEAPOLIS    CLOUDY    34  29  82 SE6       29.80R WCI  29
INTNL FALLS    CLOUDY    28  23  81 W8        29.79R WCI  20
DULUTH         CLOUDY    32  26  78 W5        29.78R WCI  27
RED WING       CLOUDY    34  28  80 E3        29.79S
REDWOOD FALLS  CLOUDY    33  30  88 N6        29.78R WCI  28
MANKATO        MOCLDY    36  28  75 CALM      29.77R
WORTHINGTON    CLOUDY    30 -17  12 NE16      29.72R WCI  19
FAIRMONT       CLOUDY    34  28  80 NE5       29.74R WCI  30
$$

...SOUTHWEST WISCONSIN...


CITY           SKY/WX    TMP DP  RH WIND       PRES   REMARKS
LA CROSSE      CLEAR     37  29  72 E5        29.81S WCI  33
PRAIRIE DU CHI MOCLDY    42  30  63 SE5       29.82R
BOSCOBEL       MOCLDY    42  30  62 VRB3      29.84S
LONE ROCK      NOT AVBL
PLATTEVILLE    MOCLDY    39  32  77 CALM      29.85S
FORT MC COY    CLEAR     35  29  79 E3        29.83S
VIROQUA        FAIR      36  32  85 SE6       29.81R WCI  31
WIS DELLS      NOT AVBL
$$

...ELSEWHERE IN WISCONSIN...


CITY           SKY/WX    TMP DP  RH WIND       PRES   REMARKS
MILWAUKEE      MOCLDY    39  30  70 S7        29.93F WCI  34
MADISON        CLOUDY    40  31  70 S8        29.87R WCI  34
GREEN BAY      CLOUDY    35  30  82 S5        29.89R WCI  31
EAU CLAIRE     NOT AVBL
BLACK RVR FLS  FAIR      35  29  79 CALM      29.82R
MEDFORD        CLOUDY    31  28  88 S3        29.81R
WAUSAU         CLOUDY    32  27  81 S5        29.82S WCI  27
WIS RAPIDS     MOCLDY    32  27  81 SE5       29.85S WCI  27
MARSHFIELD     MOCLDY    32  27  81 SE5       29.81F WCI  27
RICE LAKE      LGT SNOW  32  31  94 SE3       29.81S
$$

...NORTHEAST IOWA...


CITY           SKY/WX    TMP DP  RH WIND       PRES   REMARKS
DECORAH        MOCLDY    39  32  75 SE5       29.78S
MASON CITY     CLOUDY    34  30  85 E7        29.75S WCI  28
CHARLES CITY   CLOUDY    39  34  81 SE5       29.77R
OELWEIN        CLOUDY    41  34  75 S15       29.78S
$$

...ELSEWHERE IN IOWA...


CITY           SKY/WX    TMP DP  RH WIND       PRES   REMARKS
DES MOINES     MOCLDY    46  31  55 S10       29.73R
IOWA CITY      PTCLDY    41  32  70 SE10      29.84S
FORT DODGE     CLEAR     34  28  80 E7        29.72R WCI  28
$$

...NORTHERN ILLINOIS...


CITY           SKY/WX    TMP DP  RH WIND       PRES   REMARKS
CHICAGO-OHARE  MOCLDY    39  32  76 S10       29.97R WCI  32
CHICAGO-MIDWAY MOCLDY    42  34  73 S9        29.99R
MOLINE         PTCLDY    44  32  62 SE9       29.88S
ROCKFORD       MOCLDY    40  31  70 S13       29.94S WCI  32
PEORIA         CLEAR     45  35  68 S14       29.95S
$$

NOTE: "FAIR" INDICATES FEW OR NO CLOUDS BELOW 12,000 FEET WITH NO
SIGNIFICANT WEATHER AND/OR OBSTRUCTIONS TO VISIBILITY. WIND
SPEEDS ARE IN MILES-PER-HOUR.



USA.gov is the U.S. government's official web portal to all federal, state and local government web resources and services.